Regional Weather Roundup
Issued by NWS Raleigh/Durham, NC

Home | Current Version | Previous Version | Text Only | Print | Product List | Glossary On
Versions: 1 2 3 4 5 6 7 8 9 10 11 12 13 14 15 16 17 18 19 20 21 22 23 24 25 26 27 28 29 30 31 32 33 34 35 36 37 38 39 40 41 42 43 44 45 46 47 48 49 50
672
ASUS42 KRAH 231410
RWRRAH
NORTH CAROLINA WEATHER ROUNDUP
NATIONAL WEATHER SERVICE RALEIGH NC
900 AM EST THU FEB 23 2017

NOTE: "FAIR" INDICATES FEW OR NO CLOUDS BELOW 12,000 FEET WITH NO
SIGNIFICANT WEATHER AND/OR OBSTRUCTIONS TO VISIBILITY.

NCZ001-053-055-056-065-067-231500-
WESTERN NORTH CAROLINA

CITY           SKY/WX    TMP DP  RH WIND       PRES   REMARKS
ASHEVILLE      FOG       51  49  92 CALM      29.98S VSB 1/4
JEFFERSON      FOG       46  46  99 CALM      29.98S VSB 1
MORGANTON      FOG       49  49 100 CALM      30.01S VSB<1/4
HICKORY        FOG       51  51 100 CALM      29.96R VSB<1/4
RUTHERFORDTON  SUNNY     57  55  94 CALM      29.97S
MOUNT AIRY     SUNNY     55  53  95 CALM      29.99R
BOONE          SUNNY     43  43 100 CALM      29.99S
$$

NCZ021-022-025-041-071-084-088-231500-
CENTRAL NORTH CAROLINA

CITY           SKY/WX    TMP DP  RH WIND       PRES   REMARKS
CHARLOTTE      MOSUNNY   61  54  77 N5        29.95S
GREENSBORO     MOSUNNY   56  55  97 CALM      29.96R FOG
WINSTON-SALEM  MOSUNNY   54  53  97 CALM      29.97S FOG
RALEIGH-DURHAM MOSUNNY   58  54  86 CALM      29.97R
FORT BRAGG     PTSUNNY   63  54  72 NE5       29.95S
FAYETTEVILLE   MOSUNNY   62  54  74 NE5       29.96R
BURLINGTON     SUNNY     56  55  97 CALM      29.96S
LAURINBURG     PTSUNNY   61  55  81 E5        29.96R
$$

NCZ011-015-027-028-043-044-047-080-103-231500-
NORTHEASTERN NORTH CAROLINA

CITY           SKY/WX    TMP DP  RH WIND       PRES   REMARKS
ROCKY MT-WILSO SUNNY     60  56  86 CALM      29.98R
GREENVILLE     SUNNY     63  55  77 CALM      29.99S
WASHINGTON     MOSUNNY   60  54  80 CALM      29.98R
ELIZABETH CITY PTSUNNY   59  55  87 E3        29.99R
MANTEO         CLOUDY    61  56  82 CALM      29.99R
CAPE HATTERAS  CLOUDY    68  60  75 CALM      29.97R HAZE
$$

NCZ078-087-090-091-093-098-101-231500-
SOUTHEASTERN NORTH CAROLINA

CITY           SKY/WX    TMP DP  RH WIND       PRES   REMARKS
LUMBERTON      LGT RAIN  61  55  81 E5        29.95R
GOLDSBORO      MOSUNNY   62  59  90 CALM      29.96R
KINSTON        MOSUNNY   61  55  82 NE3       29.98R
KENANSVILLE    NOT AVBL
NEW BERN       MOSUNNY   59  56  89 N3        29.98R
CHERRY POINT   NOT AVBL
BEAUFORT       CLOUDY    63  57  81 NE5       29.96R
JACKSONVILLE   CLOUDY    62  56  80 VRB3      29.96R
WILMINGTON     CLOUDY    63  59  87 N6        29.94R
$$





USA.gov is the U.S. government's official web portal to all federal, state and local government web resources and services.